Regional Weather Roundup
Issued by NWS Charleston, WV

Home | Current Version | Previous Version | Graphics & Text | Print | Product List | Glossary On
Versions: 1 2 3 4 5 6 7 8 9 10 11 12 13 14 15 16 17 18 19 20 21 22 23 24 25 26 27 28 29 30 31 32 33 34 35 36 37 38 39 40 41 42 43 44 45 46 47 48 49 50
000
ASUS41 KRLX 242210
RWRRLX
West Virginia Regional Weather Roundup
National Weather Service Charleston WV
500 PM EST MON NOV 24 2014

Note: "fair" indicates few or no clouds below 12,000 feet with no
significant weather and/or obstructions to visibility.

WVZ003-242300-
Northern Panhandle of West Virginia

CITY           SKY/WX    TMP DP  RH WIND       PRES   REMARKS
WHEELING       PTCLDY    59  43  55 W15G29    29.60R
$$

WVZ009-242300-
Northwest West Virginia

CITY           SKY/WX    TMP DP  RH WIND       PRES   REMARKS
PARKERSBURG    PTCLDY    61  40  45 W12G26    29.67R
$$

WVZ006-242300-
Western West Virginia

CITY           SKY/WX    TMP DP  RH WIND       PRES   REMARKS
HUNTINGTON     CLEAR     60  41  49 W12G21    29.70R
$$

WVZ015-242300-
West Central West Virginia

CITY           SKY/WX    TMP DP  RH WIND       PRES   REMARKS
CHARLESTON     PTCLDY    65  43  44 W13G22    29.68R
$$

WVZ022-031-242300-
North Central West Virginia

CITY           SKY/WX    TMP DP  RH WIND       PRES   REMARKS
CLARKSBURG     MOCLDY    66  41  40 SW15G28   29.61R
MORGANTOWN     PTCLDY    67  36  31 SW16G26   29.60R
$$

WVZ025-035-042-045-242300-
Southern West Virginia

CITY           SKY/WX    TMP DP  RH WIND       PRES   REMARKS
BECKLEY        CLOUDY    64  37  36 SW12G28   29.73R
LOGAN            N/A     64  39  39 SW12G21   29.70R
BLUEFIELD      CLEAR     65  35  33 SW24G43   29.76R
LEWISBURG      PTCLDY    67  36  31 SW15G26   29.72R
$$

WVZ047-242300-
Northern Mountains of West Virginia

CITY           SKY/WX    TMP DP  RH WIND       PRES   REMARKS
ELKINS         PTCLDY    66  40  38 SW18G30   29.65R
$$

WVZ052-242300-
Eastern Panhandle of West Virginia

CITY           SKY/WX    TMP DP  RH WIND       PRES   REMARKS
MARTINSBURG    CLEAR     68  48  48 S13G20    29.60R
PETERSBURG     PTCLDY    73  32  22 SW13G26   29.61R
$$



USA.gov is the U.S. government's official web portal to all federal, state and local government web resources and services.